Altoona, PA

12:49 PM EDT on April 26, 2017 (GMT -0400)
Altoona-Blair County

Weather History for KAOO - November, 2013

Change the Weather History Date:

Tuesday, November 12, 2013

  Actual Average Record
Temperature  
Mean Temperature 35 °F 43 °F  
Max Temperature 42 °F 51 °F 71 °F (1982)
Min Temperature 27 °F 35 °F 20 °F (1950)
Degree Days  
Heating Degree Days 30 22  
Month to date heating degree days 259 242  
Since 1 July heating degree days 766 849  
Cooling Degree Days 0 0  
Month to date cooling degree days 0 0  
Year to date cooling degree days 695 522  
Moisture  
Dew Point 25 °F    
Average Humidity 68    
Maximum Humidity 93    
Minimum Humidity 43    
Precipitation  
Precipitation 0.06 in 0.10 in 1.71 in (1970)
Month to date precipitation 0.45 1.24  
Year to date precipitation 25.43 28.22  
Sea Level Pressure  
Sea Level Pressure 30.21 in    
Wind  
Wind Speed 12 mph (NNW)    
Max Wind Speed 22 mph    
Max Gust Speed 31 mph    
Visibility 7 miles    
Events Fog , Rain , Snow    
T = Trace of Precipitation, MM = Missing Value Source: NWS Daily Summary

Daily Weather History Graph

Daily Weather History Graph

Search for Another Location

Airport or City:

Trip Planner

Search our weather history database for the weather conditions in past years. The results will help you decide how hot, cold, wet, or windy it might be!

Date:

Astronomy

Nov. 12, 2013 Rise Set
Actual Time 6:55 AM EST 4:58 PM EST
Civil Twilight 6:26 AM EST 5:27 PM EST
Nautical Twilight 5:54 AM EST 6:00 PM EST
Astronomical Twilight 5:22 AM EST 6:32 PM EST
Moon 2:12 PM EST (11/12) 1:43 AM EST (11/12)
Length of Visible Light 11h 00m
Length of Day
10h 02m
Waxing Gibbous, 76% of the Moon is Illuminated
Nov 12
Waxing Gibbous
Nov 17
Full
Nov 25
Last Quarter
Dec 2
New
Dec 9
First Quarter

Hourly Weather History & Observations

Time (EST) Temp. Windchill Dew Point Humidity Pressure Visibility Wind Dir Wind Speed Gust Speed Precip Events Conditions
12:00 AM 42.1 °F 37.7 °F 39.0 °F 89% 30.01 in 9.0 mi NW 6.9 mph - 0.00 in Rain Light Rain
12:48 AM 41.0 °F 37.1 °F 39.2 °F 93% 30.01 in 8.0 mi WNW 5.8 mph - 0.02 in Rain Light Rain
12:53 AM 41.0 °F 36.4 °F 39.0 °F 93% 30.04 in 7.0 mi NW 6.9 mph - 0.02 in Rain Light Rain
1:09 AM 41.0 °F 36.4 °F 39.0 °F 93% 30.01 in 5.0 mi NNW 6.9 mph - 0.01 in Rain Light Rain
1:33 AM 39.9 °F 33.9 °F 37.9 °F 93% 30.01 in 6.0 mi NW 9.2 mph - 0.02 in Rain Light Rain
1:46 AM 39.0 °F 33.4 °F 37.0 °F 93% 30.02 in 7.0 mi NW 8.1 mph - 0.02 in Rain Light Rain
1:53 AM 39.0 °F 31.4 °F 36.0 °F 89% 30.05 in 8.0 mi NW 12.7 mph - 0.02 in Rain Light Rain
2:01 AM 37.9 °F 30.5 °F 36.0 °F 93% 30.03 in 7.0 mi NW 11.5 mph - 0.01 in Rain Light Rain
2:15 AM 37.0 °F 28.5 °F 35.1 °F 93% 30.04 in 9.0 mi NW 13.8 mph - 0.01 in Rain Light Rain
2:25 AM 36.0 °F 27.1 °F 35.1 °F 97% 30.04 in 9.0 mi NNW 13.8 mph - 0.01 in Rain Light Rain
2:53 AM 34.0 °F 25.5 °F 33.1 °F 96% 30.08 in 3.0 mi NW 11.5 mph - 0.02 in Snow Light Snow
3:01 AM 34.0 °F 26.0 °F 33.1 °F 96% 30.06 in 1.8 mi NNW 10.4 mph - 0.00 in Snow Light Snow
3:20 AM 34.0 °F 24.2 °F 32.0 °F 92% 30.07 in 2.0 mi North 15.0 mph 20.7 mph 0.00 in Snow Light Snow
3:30 AM 34.0 °F 25.0 °F 30.0 °F 85% 30.07 in 3.0 mi NNW 12.7 mph 25.3 mph 0.00 in Snow Light Snow
3:47 AM 33.8 °F 23.5 °F 30.2 °F 87% 30.07 in 2.5 mi NNW 16.1 mph 23.0 mph 0.00 in Snow Light Snow
3:53 AM 33.1 °F 23.4 °F 30.0 °F 89% 30.11 in 1.8 mi NNW 13.8 mph 23.0 mph 0.00 in Snow Light Snow
4:01 AM 33.1 °F 24.4 °F 30.0 °F 89% 30.09 in 1.2 mi NNW 11.5 mph 23.0 mph 0.00 in Snow Light Snow
4:44 AM 32.0 °F 20.1 °F 28.0 °F 85% 30.11 in 2.0 mi North 19.6 mph 27.6 mph 0.00 in Snow Light Snow
4:53 AM 30.9 °F 19.4 °F 28.0 °F 89% 30.15 in 1.8 mi North 17.3 mph 25.3 mph 0.00 in Snow Light Snow
5:40 AM 30.0 °F 20.0 °F 27.0 °F 88% 30.14 in 2.0 mi North 12.7 mph - 0.00 in Snow Light Snow
5:53 AM 30.0 °F 18.7 °F 27.0 °F 88% 30.18 in 1.8 mi North 16.1 mph - 0.00 in Snow Light Snow
6:15 AM 30.0 °F 18.3 °F 27.0 °F 88% 30.17 in 0.8 mi North 17.3 mph 24.2 mph 0.00 in Snow Light Snow
6:23 AM 28.0 °F 14.3 °F 25.0 °F 88% 30.18 in 0.5 mi North 21.9 mph 27.6 mph 0.00 in Fog , Snow Snow
6:26 AM 28.0 °F 15.3 °F 23.0 °F 81% 30.18 in 1.0 mi North 18.4 mph 27.6 mph 0.00 in Snow Light Snow
6:31 AM 28.0 °F 16.1 °F 21.9 °F 78% 30.18 in 3.0 mi North 16.1 mph 27.6 mph 0.00 in Snow Light Snow
6:38 AM 28.0 °F 17.0 °F 21.9 °F 78% 30.18 in 9.0 mi North 13.8 mph - 0.00 in   Overcast
6:53 AM 28.0 °F 19.3 °F 21.9 °F 78% 30.22 in 10.0 mi North 9.2 mph - 0.00 in   Overcast
7:53 AM 28.9 °F 20.4 °F 21.9 °F 75% 30.26 in 10.0 mi North 9.2 mph - N/A   Mostly Cloudy
8:15 AM 30.0 °F 20.5 °F 21.9 °F 72% 30.23 in 10.0 mi North 11.5 mph - N/A   Overcast
8:28 AM 30.0 °F 26.5 °F 23.0 °F 75% 30.23 in 10.0 mi North 3.5 mph - N/A   Mostly Cloudy
8:53 AM 30.9 °F - 21.9 °F 69% 30.28 in 10.0 mi North - - N/A   Mostly Cloudy
9:53 AM 30.0 °F 22.4 °F 21.0 °F 69% 30.30 in 10.0 mi NNW 8.1 mph - N/A   Mostly Cloudy
10:53 AM 30.9 °F 18.7 °F 19.0 °F 61% 30.30 in 10.0 mi NW 19.6 mph 31.1 mph N/A   Overcast
11:53 AM 32.0 °F 21.6 °F 19.0 °F 59% 30.29 in 10.0 mi NNW 15.0 mph 26.5 mph N/A   Mostly Cloudy
12:53 PM 33.1 °F 24.9 °F 19.0 °F 56% 30.30 in 10.0 mi North 10.4 mph 24.2 mph N/A   Mostly Cloudy
1:53 PM 34.0 °F 25.5 °F 19.0 °F 54% 30.30 in 10.0 mi North 11.5 mph 26.5 mph N/A   Mostly Cloudy
2:53 PM 33.1 °F 22.6 °F 15.1 °F 48% 30.33 in 10.0 mi NW 16.1 mph 23.0 mph N/A   Mostly Cloudy
3:53 PM 33.1 °F 21.5 °F 14.0 °F 46% 30.35 in 10.0 mi NNW 19.6 mph 27.6 mph N/A   Partly Cloudy
4:53 PM 30.9 °F 26.2 °F 16.0 °F 54% 30.36 in 10.0 mi North 4.6 mph - N/A   Clear
5:53 PM 28.9 °F 21.1 °F 16.0 °F 58% 30.37 in 8.0 mi NW 8.1 mph - N/A   Clear
6:53 PM 27.0 °F - 16.0 °F 63% 30.39 in 10.0 mi Calm Calm - N/A   Clear
7:53 PM 28.0 °F 21.7 °F 17.1 °F 63% 30.40 in 10.0 mi WNW 5.8 mph - N/A   Clear
8:53 PM 28.9 °F 17.7 °F 19.9 °F 69% 30.41 in 10.0 mi NW 15.0 mph 18.4 mph N/A   Overcast
9:42 PM 28.9 °F 19.2 °F 19.9 °F 69% 30.36 in 10.0 mi WNW 11.5 mph - N/A   Overcast
9:51 PM 28.4 °F 17.5 °F 19.4 °F 69% 30.36 in 10.0 mi NNW 13.8 mph 25.3 mph N/A   Overcast
9:53 PM 28.9 °F 17.7 °F 19.9 °F 69% 30.42 in 10.0 mi NW 15.0 mph 25.3 mph N/A   Overcast
10:49 PM 28.4 °F 18.0 °F 19.4 °F 69% 30.37 in 10.0 mi WNW 12.7 mph - N/A   Overcast
10:53 PM 28.0 °F 17.0 °F 19.9 °F 72% 30.43 in 10.0 mi NW 13.8 mph - N/A   Overcast
11:01 PM 28.0 °F 18.6 °F 19.0 °F 69% 30.37 in 10.0 mi NW 10.4 mph - N/A   Overcast
11:08 PM 28.0 °F 17.5 °F 19.0 °F 69% 30.37 in 10.0 mi NW 12.7 mph 20.7 mph N/A   Overcast
11:40 PM 28.0 °F 17.5 °F 18.0 °F 66% 30.37 in 10.0 mi NW 12.7 mph 21.9 mph N/A   Mostly Cloudy
11:53 PM 27.0 °F 17.3 °F 18.0 °F 69% 30.43 in 10.0 mi NW 10.4 mph 18.4 mph N/A   Mostly Cloudy